Historyczne dane pomiarowe

Dodano dane terminowe – wersja testowa.

Dane z okresu 1951-2019

Wersja bazy: 1.34 [2019-03-16, lista zmian], aktualizacja planowana na 2019-04-15

Dane meteo z obszaru Polski uzyskane na podstawie danych udostępnionych przez Instytut Meteorologii i Gospodarki Wodnej – Państwowy Instytut Badawczy.

 

Wybierz Datę:    

       

TemperaturaWilgotnośćWiatrCiśnienieOpadyŚniegCzas trwania zjawisk
 Stacja t tx tn tng RH VA  wxwx mslp ppp RRR   cm mm wxwxwxwxwxwxwx
2019-07-31 20.8 25.7 16.8 15.2 74.1 17.6- 2.6--1011.6 985.8 0.0 0.0 0.0- 0.0--------
2019-07-30 22.5 30.8 17.7 17.3 78.8 20.5- 2.6--1006.5 980.9 5.3 5.1 0.2- 0.0--------
2019-07-29 22.5 31.1 16.7 15.2 78.9 21.0- 1.9--1005.1 979.5 4.6 1.8 2.8- 0.0--------
2019-07-28 24.9 31.5 19.9 18.9 64.9 19.8----1005.5 980.2 0.0 0.0 0.0- 0.0--------
2019-07-27 21.5 27.7 14.1 11.9 69.5 17.3- 3.5--1008.6 982.9 0.0 0.0 0.0- 0.0--------
2019-07-26 21.0 26.5 14.9 13.3 65.0 15.7- 2.6--1011.5 985.7 0.0 0.0 0.0- 0.0--------
2019-07-25 21.5 28.0 12.8 10.3 64.5 15.5- 2.4--1017.4 991.5 0.0 0.0 0.0- 0.0--------
2019-07-24 18.9 24.7 11.7 9.6 70.4 14.9- 3.4--1017.9 991.8 0.0 0.0 0.0- 0.0--------
2019-07-23 19.1 22.6 15.3 14.3 67.4 14.6- 3.1--1018.4 992.2 0.0 0.0 0.0- 0.0--------
2019-07-22 20.6 26.0 17.0 16.7 72.9 17.1- 4.0--1019.8 993.8 0.0 0.0 0.0- 0.0--------
2019-07-21 21.0 29.9 13.8 11.4 76.0 17.9- 2.1--1017.6 991.7 15.9 14.4 1.5- 0.0--------
2019-07-20 20.1 27.6 14.5 12.4 71.0 16.2- 1.5--1017.1 991.1 1.9 0.2 1.7- 0.0--------
2019-07-19 19.0 27.3 7.9 5.8 60.0 11.9- 2.0--1015.1 989.0 0.1 0.0 0.1- 0.0--------
2019-07-18 16.2 23.0 9.8 7.5 70.1 12.3- 3.3--1013.2 987.0 0.0 0.0 0.0- 0.0--------
2019-07-17 15.2 20.1 11.9 11.0 76.1 13.1- 4.3--1010.4 984.2 9.7 9.7 0.0- 0.0--------
2019-07-16 16.5 24.5 8.3 6.9 62.6 11.0- 4.1--1011.2 985.0 0.1 0.0 0.1- 0.0--------
2019-07-15 15.7 22.4 7.8 6.1 70.4 11.9- 2.1--1012.4 986.1 0.0 0.0 0.0- 0.0--------
2019-07-14 15.3 21.6 12.2 11.7 85.5 14.6- 2.1--1010.8 984.5 6.3 5.4 0.9- 0.0--------
2019-07-13 15.6 24.3 9.7 6.8 75.9 13.0- 2.0--1009.8 983.5 3.8 1.7 2.1- 0.0--------
2019-07-12 16.9 23.1 9.8 6.7 60.5 11.0- 2.9--1010.8 984.7 1.2 0.0 1.2- 0.0--------
2019-07-11 14.6 19.8 10.3 9.6 74.9 12.1- 4.3--1010.8 984.5 0.0 0.0 0.0- 0.0--------
2019-07-10 14.3 18.0 12.2 11.6 79.0 12.8- 5.6--1010.7 984.3 0.4 0.0 0.4- 0.0--------
2019-07-09 14.0 20.7 7.6 6.8 67.5 10.4- 5.9--1011.9 985.5 0.7 0.6 0.1- 0.0--------
2019-07-08 14.0 19.2 8.9 8.4 67.3 10.6- 5.1--1011.2 984.8 0.8 0.8 0.0- 0.0--------
2019-07-07 17.9 22.1 15.6 14.3 72.3 14.7- 3.9--1005.9 980.0 0.0 0.0 0.0- 0.0--------
2019-07-06 17.7 23.2 9.4 8.3 68.6 13.5- 3.6--1010.1 984.0 0.5 0.0 0.5- 0.0--------
2019-07-05 16.4 23.3 8.2 5.9 58.5 10.4- 4.6--1013.3 987.0 0.0 0.0 0.0- 0.0--------
2019-07-04 14.4 22.2 6.6 3.6 60.8 9.2- 3.5--1020.1 993.5 0.0 0.0 0.0- 0.0--------
2019-07-03 15.4 21.9 9.5 7.9 61.5 10.1- 3.8--1018.4 992.0 0.0 0.0 0.0- 0.0--------
2019-07-02 21.1 28.5 17.4 16.6 66.6 16.0- 4.3--1013.8 988.0 0.0 0.0 0.0- 0.0--------
2019-07-01 27.5 35.1 20.2 18.4 52.0 18.3----1011.6 986.3 0.0 0.0 0.0- 0.0--------
2019-06-30 23.1 31.2 12.2 8.8 57.6 15.3----1015.9 990.2 0.0 0.0 0.0- 0.0--------
2019-06-29 16.9 24.8 9.6 8.6 65.6 12.2- 5.1--1019.0 992.6 0.0 0.0 0.0- 0.0--------
2019-06-28 16.7 22.0 12.5 12.1 63.4 11.4- 6.4--1018.1 991.7 0.0 0.0 0.0- 0.0--------
2019-06-27 22.7 27.4 20.7 20.3 66.1 18.1----1014.3 988.6 0.0 0.0 0.0- 0.0--------
2019-06-26 24.7 32.4 14.7 11.8 69.4 21.1----1021.8 996.1 1.6 0.0 1.6- 0.0--------
2019-06-25 21.2 27.5 13.5 11.4 69.3 16.9- 2.6--1026.71000.5 0.0 0.0 0.0- 0.0--------
2019-06-24 19.9 24.8 14.7 11.9 79.6 18.1- 3.1--1023.7 997.5 0.0 0.0 0.0- 0.0--------
2019-06-23 21.0 25.4 16.9 16.4 69.5 17.2- 4.3--1019.2 993.2 0.0 0.0 0.0- 0.0--------
2019-06-22 19.4 23.0 16.6 16.4 88.0 19.7- 3.5--1019.2 993.1 0.0 0.0 0.0- 0.0--------
2019-06-21 21.2 27.4 16.2 15.0 79.9 19.7- 2.6--1014.4 988.5 6.8 6.5 0.3- 0.0--------
2019-06-20 22.9 28.9 15.5 14.1 74.3 19.8- 2.5--1011.8 986.2 0.0 0.0 0.0- 0.0--------
2019-06-19 19.5 27.3 14.0 12.3 87.1 19.6- 3.3--1015.3 989.2 11.5 11.5 0.0- 0.0--------
2019-06-18 20.1 24.5 16.1 16.0 77.0 17.7- 1.8--1019.5 993.4 0.0 0.0 0.0- 0.0--------
2019-06-17 19.0 24.9 16.4 15.4 77.9 16.9- 4.1--1019.5 993.4 0.0 0.0 0.0- 0.0--------
2019-06-16 24.3 29.5 18.7 15.2 72.5 21.6----1013.7 988.2 0.2 0.0 0.2- 0.0--------
2019-06-15 24.5 31.3 15.7 14.7 71.3 21.1----1015.4 989.8 0.0 0.0 0.0- 0.0--------
2019-06-14 23.1 29.8 17.5 15.8 75.1 21.2----1017.5 991.8 0.0 0.0 0.0- 0.0--------
2019-06-13 24.2 30.8 15.5 13.2 69.5 20.0----1015.4 989.8 0.0 0.0 0.0- 0.0--------
2019-06-12 23.7 30.4 16.2 13.5 71.6 20.4----1015.1 989.5 0.0 0.0 0.0- 0.0--------
2019-06-11 23.4 30.1 15.9 13.1 70.1 19.3----1016.4 990.6 0.0 0.0 0.0- 0.0--------
2019-06-10 21.1 28.0 11.6 10.6 76.3 18.7- 3.1--1020.0 994.0 0.0 0.0 0.0- 0.0--------
2019-06-09 20.5 24.9 17.7 17.8 76.0 18.0----1024.3 998.1 0.0 0.0 0.0- 0.0--------
2019-06-08 21.1 26.8 13.4 11.7 77.4 18.9----1018.3 992.3 0.0 0.0 0.0- 0.0--------
2019-06-07 18.5 26.0 12.7 11.5 84.6 17.6- 2.4--1015.8 989.7 2.2 2.2 0.0- 0.0--------
2019-06-06 18.9 25.7 14.2 12.4 82.9 17.7- 2.9--1014.4 988.3 1.1 0.3 0.8- 0.0--------
2019-06-05 20.7 25.8 13.9 11.6 71.4 16.9- 4.3--1013.8 987.9 0.0 0.0 0.0- 0.0--------
2019-06-04 19.9 25.6 11.9 10.8 74.5 16.8- 3.4--1015.7 989.7 0.0 0.0 0.0- 0.0--------
2019-06-03 19.6 26.1 11.1 10.3 72.9 16.0- 2.1--1018.2 992.2 0.0 0.0 0.0- 0.0--------
2019-06-02 18.3 25.0 9.9 9.5 72.5 14.7- 2.0--1019.1 992.9 0.0 0.0 0.0- 0.0--------
63.5 ms

 

Źródłem pochodzenia danych jest Instytut Meteorologii i Gospodarki Wodnej – Państwowy Instytut Badawczy. Dane Instytutu Meteorologii i Gospodarki Wodnej – Państwowego Instytutu Badawczego zostały przetworzone.

Dane źródłowe można odnaleźć na stronie https://dane.imgw.pl